Home > Weather > Bahía Blanca > Past weeks

Flag for Argentina Past Weather in Bahía Blanca, Buenos Aires, Argentina — Yesterday and Last 2 Weeks

Now
54 °F

Mostly cloudy.


Feels Like: 50 °F
Forecast: 46 / 56 °F
Wind: 12 mph from North

Location: Mar Del Plata Aerodrome

Current Time: Jun 28, 2016 at 12:12:04 PM

Latest Report: Jun 28, 2016 at 11:00 AM


Visibility: 5 mi

Pressure: 30.15 "Hg

Humidity: 94%

Dew Point: 52 °F

Location of Bahía BlancaLocation

Past Weather in Bahía Blanca — Graph

°F

Bahía Blanca Temperature Yesterday

Maximum temperature yesterday: 54 °F (at 10:00 AM)
Minimum temperature yesterday: 48 °F (at 12:00 AM)
Average temperature yesterday: 52 °F

High & Low Weather Summary for the Past Weeks

 TemperatureHumidityPressure
High59 °F (Jun 14, 3:00 PM)100% (Jun 16, 1:00 AM)30.48 "Hg (Jun 16, 1:00 AM)
Low34 °F (Jun 18, 6:00 AM)48% (Jun 14, 3:00 PM)30.12 "Hg (Jun 17, 2:00 PM)
Average46 °F85%30.29 "Hg
* Reported Jun 13 10:00 AM — Jun 28 10:00 AM, Bahía Blanca, Weather by CustomWeather, © 2016

Note: Actual official high and low records may vary slightly from our data, if they occured in-between our weather recording intervals... More about our weather records

Advertising

Bahía Blanca Weather History for the Previous 24 Hours

Scroll right to see more
 ConditionsComfort  
Time TempWeatherWind HumidityBarometerVisibility
10:00 AM
Tue, Jun 28
54 °FLight rain. Fog.12 mph100%30.15 "Hg1 mi
9:00 AM54 °FHeavy rain. Fog.13 mph100%30.15 "Hg2 mi
8:00 AM54 °FRain. Fog.13 mph100%30.15 "Hg1 mi
7:00 AM54 °FDrizzle. Fog.12 mph100%30.15 "Hg1 mi
6:00 AM54 °FRain. Fog.10 mph100%30.15 "Hg1 mi
5:00 AM54 °FFog.12 mph100%30.18 "Hg1 mi
4:00 AM54 °FLight rain. Fog.9 mph94%30.21 "Hg1 mi
3:00 AM54 °FLight rain. Fog.10 mph94%30.24 "Hg1 mi
2:00 AM54 °FRain. Fog.12 mph94%30.24 "Hg1 mi
1:00 AM54 °FLight rain. Fog.14 mph94%30.24 "Hg3 mi
12:00 AM54 °FRain. Fog.16 mph94%30.27 "Hg2 mi
11:00 PM
Mon, Jun 27
54 °FRain. Fog.14 mph94%30.27 "Hg1 mi
10:00 PM52 °FRain. Fog.14 mph100%30.27 "Hg1 mi
9:00 PM52 °FRain. Fog.12 mph100%30.30 "Hg2 mi
8:00 PM52 °FHeavy rain. Fog.12 mph100%30.30 "Hg1 mi
7:00 PM52 °FRain. Fog.12 mph100%30.30 "Hg2 mi
6:00 PM52 °FDrizzle. Mostly cloudy.9 mph100%30.30 "Hg1 mi
5:00 PM52 °FDrizzle. Fog.13 mph94%30.30 "Hg1 mi
4:00 PM52 °FDrizzle. Fog.15 mph100%30.33 "Hg1 mi
3:00 PM54 °FDrizzle. Mostly cloudy.14 mph88%30.33 "Hg2 mi
2:00 PM54 °FDrizzle. Mostly cloudy.15 mph88%30.36 "Hg4 mi
1:00 PM54 °FPartly sunny.16 mph82%30.36 "HgN/A
12:00 PM54 °FPartly sunny.15 mph88%30.39 "HgN/A
Weather by CustomWeather, © 2016

See weather overviewHow to use our weather pages